Regional Weather Roundup
Issued by NWS Albany, NY

Home | Current Version | Previous Version | Graphics & Text | Print | Product List | Glossary On
Versions: 1 2 3 4 5 6 7 8 9 10 11 12 13 14 15 16 17 18 19 20 21 22 23 24 25 26 27 28
000
ASUS41 KALY 171810
RWRALY

NEW YORK STATE HOURLY WEATHER ROUNDUP
NATIONAL WEATHER SERVICE ALBANY NY
100 PM EST TUE JAN 17 2017

NOTE: "FAIR" INDICATES FEW OR NO CLOUDS BELOW 12,000 FEET WITH NO
SIGNIFICANT WEATHER AND/OR NO OBSTRUCTIONS TO VISIBILITY.

NYZ032-033-038>043-046>054-057>066-NYZ062>081-082-084-171900-
EAST


CITY           SKY/WX    TMP DP  RH WIND       PRES   REMARKS
ALBANY         LGT RAIN  33  22  63 N3        30.15F
GLENS FALLS    MOSUNNY   36  17  46 N3        30.15F
POUGHKEEPSIE   MIX PCPN  35  32  88 CALM      30.15F FOG
NEWBURGH       DRIZZLE   36  34  93 VRB5      30.15F FOG     WCI  32
MONTGOMERY     LGT RAIN  36  33  89 NE3       30.13F FOG
WHITE PLAINS   LGT RAIN  37  33  85 E5        30.14F FOG     WCI  33
ISLIP          LGT RAIN  39  36  89 E3        30.16F FOG
NEW YORK CITY  LGT RAIN  40  36  86 E8        30.14F FOG     WCI  34
CENTRAL PARK   LGT RAIN  40  38  93 VRB3      30.17F FOG
$$

NYZ005>009-017-018-044>046-055-056-171900-
CENTRAL


CITY           SKY/WX    TMP DP  RH WIND       PRES   REMARKS
FULTON         LGT RAIN  34  30  85 VRB7      30.00F FOG     WCI  28
SYRACUSE       LGT RAIN  33  31  92 E9        30.00F WCI  25
ROME           LGT RAIN  34  26  72 SE13      30.07F WCI  25
ELMIRA         LGT RAIN  37  33  85 VRB3      29.96F FOG
BINGHAMTON     FRZ RAIN  32  31  96 SE10      29.97F FOG     WCI  24
MONTICELLO     CLOUDY    30  30 100 E9        30.09F WCI  22
$$

NYZ026>034-041>043-087-171900-
NORTH


CITY           SKY/WX    TMP DP  RH WIND       PRES   REMARKS
WATERTOWN      CLOUDY    36  20  52 NE9       30.01F WCI  29
FORT DRUM      NOT AVBL
OGDENSBURG     FAIR      35  27  74 NE8       30.07F WCI  28
MASSENA        CLOUDY    34  26  72 NE13      30.13F WCI  25
SARANAC LAKE   CLOUDY    33  20  58 E9        30.03F WCI  25
PLATTSBURGH    PTSUNNY   34  22  61 N5        30.16F WCI  30
$$

NYZ001>004-010>016-019>021-085-171900-
WEST


CITY           SKY/WX    TMP DP  RH WIND       PRES   REMARKS
NIAGARA FALLS  LGT RAIN  38  35  89 E9        29.81F FOG     WCI  31
BUFFALO        RAIN      41  39  93 E10       29.82F FOG
DUNKIRK        LGT RAIN  50  48  93 SW9       29.78F
JAMESTOWN      CLOUDY    46  45  93 S7        29.81F VSB 1/2
WELLSVILLE     RAIN      44  41  89 S6        29.87F FOG
ROCHESTER      RAIN      37  35  92 E9        29.90F FOG     WCI  30
PENN YAN       LGT RAIN  38  34  85 S7        29.91F FOG     WCI  33
$$

             KEY
       WCI = WIND CHILL INDEX
       VSB = VISIBILITY
       HX  = HEAT INDEX
$$




USA.gov is the U.S. government's official web portal to all federal, state and local government web resources and services.